TimeEST,TemperatureF,Dew PointF,Humidity,Sea Level PressureIn,VisibilityMPH,Wind Direction,Wind SpeedMPH,Gust SpeedMPH,PrecipitationIn,Events,Conditions,WindDirDegrees,DateUTC
12:52 AM,36.0,21.0,55,29.87,10.0,WNW,15.0,-,N/A,,Partly Cloudy,300,2013-02-20 05:52:00
1:52 AM,35.1,19.9,54,29.88,10.0,WNW,10.4,-,N/A,,Mostly Cloudy,300,2013-02-20 06:52:00
2:52 AM,34.0,19.0,54,29.90,10.0,NNW,9.2,-,N/A,,Overcast,340,2013-02-20 07:52:00
3:52 AM,33.1,17.1,52,29.91,10.0,NW,12.7,23.0,N/A,,Overcast,320,2013-02-20 08:52:00
4:52 AM,32.0,16.0,52,29.93,10.0,NNW,8.1,-,N/A,,Overcast,330,2013-02-20 09:52:00
5:52 AM,32.0,14.0,48,29.96,10.0,NW,17.3,25.3,N/A,,Overcast,310,2013-02-20 10:52:00
6:52 AM,30.9,14.0,50,29.99,10.0,NW,16.1,24.2,N/A,,Mostly Cloudy,320,2013-02-20 11:52:00
7:52 AM,30.9,12.9,47,30.01,10.0,NW,19.6,33.4,N/A,,Mostly Cloudy,310,2013-02-20 12:52:00
8:52 AM,32.0,12.0,44,30.02,10.0,NW,18.4,27.6,N/A,,Mostly Cloudy,320,2013-02-20 13:52:00
9:52 AM,30.9,12.0,46,30.02,10.0,NW,23.0,33.4,N/A,,Mostly Cloudy,310,2013-02-20 14:52:00
10:52 AM,32.0,12.9,45,30.03,10.0,NW,18.4,24.2,N/A,,Mostly Cloudy,310,2013-02-20 15:52:00
11:52 AM,35.6,14.0,41,30.02,10.0,WNW,17.3,24.2,N/A,,Mostly Cloudy,290,2013-02-20 16:52:00
12:52 PM,37.0,15.1,41,30.00,10.0,WNW,20.7,33.4,N/A,,Mostly Cloudy,300,2013-02-20 17:52:00
1:52 PM,39.0,16.0,39,30.00,10.0,WNW,15.0,25.3,N/A,,Mostly Cloudy,300,2013-02-20 18:52:00
2:52 PM,39.0,14.0,36,30.00,10.0,NNW,17.3,26.5,N/A,,Scattered Clouds,330,2013-02-20 19:52:00
3:52 PM,37.0,14.0,39,30.03,10.0,NW,17.3,32.2,N/A,,Scattered Clouds,320,2013-02-20 20:52:00
4:52 PM,34.0,12.9,42,30.05,10.0,NW,17.3,31.1,N/A,,Partly Cloudy,320,2013-02-20 21:52:00
5:52 PM,30.9,12.9,47,30.09,10.0,NW,21.9,28.8,N/A,,Partly Cloudy,320,2013-02-20 22:52:00
6:52 PM,28.9,10.9,47,30.14,10.0,NNW,11.5,25.3,N/A,,Mostly Cloudy,340,2013-02-20 23:52:00
7:52 PM,27.0,9.0,47,30.14,10.0,NW,18.4,31.1,N/A,,Partly Cloudy,320,2013-02-21 00:52:00
8:52 PM,26.1,8.1,47,30.17,10.0,NW,17.3,26.5,N/A,,Clear,310,2013-02-21 01:52:00
9:52 PM,24.8,6.8,46,30.16,10.0,NW,17.3,-,N/A,,Partly Cloudy,310,2013-02-21 02:52:00
10:52 PM,25.0,7.0,46,30.18,10.0,NW,19.6,27.6,N/A,,Partly Cloudy,310,2013-02-21 03:52:00
11:52 PM,24.1,7.0,48,30.17,10.0,NW,17.3,28.8,N/A,,Scattered Clouds,320,2013-02-21 04:52:00